�N����,����,�g�[���i�����r���O�j���x,�g�[�����x,��g�[���i���ցj���x,����
 2003/09/01, 0:00,29.5,70.1,29.3,28.1
 2003/09/01, 0:15,29.7,72.5,29.3,28.1
 2003/09/01, 0:30,29.8,73.6,29.2,28.1
 2003/09/01, 0:45,29.8,72.7,29.1,28.2
 2003/09/01, 1:00,29.8,73,29.2,28.2
 2003/09/01, 1:15,29.5,70.7,29.4,28.2
 2003/09/01, 1:30,29.4,71.1,29.4,28.2
 2003/09/01, 1:45,29.4,70.3,29.3,27.3
 2003/09/01, 2:00,29.3,71.2,29.3,27.3
 2003/09/01, 2:15,29.3,70.8,29.2,27.4
 2003/09/01, 2:30,29.2,71.5,29.2,27.4
 2003/09/01, 2:45,29.2,70.9,29.1,27.5
 2003/09/01, 3:00,29.1,71.6,29.1,27.5
 2003/09/01, 3:15,29.1,71.1,29,27.5
 2003/09/01, 3:30,29,71.5,29,27.5
 2003/09/01, 3:45,29,71,28.9,27.6
 2003/09/01, 4:00,28.9,71.4,28.8,27.6
 2003/09/01, 4:15,28.9,70.8,28.8,27.6
 2003/09/01, 4:30,28.8,71.1,28.7,27.6
 2003/09/01, 4:45,28.8,70.6,28.7,27.6
 2003/09/01, 5:00,28.7,70.9,28.6,27.6
 2003/09/01, 5:15,28.7,70.6,28.6,27.7
 2003/09/01, 5:30,28.7,70.8,28.5,27.7
 2003/09/01, 5:45,28.7,70.2,28.5,27.7
 2003/09/01, 6:00,28.4,71.9,28.3,27.7
 2003/09/01, 6:15,28.2,72.5,28.2,27.7
 2003/09/01, 6:30,28.2,72.7,28.1,27.8
 2003/09/01, 6:45,28.2,72.6,28.1,27.8
 2003/09/01, 7:00,28.3,72.4,28.1,27.8
 2003/09/01, 7:15,28.3,71.5,28.1,27.8
 2003/09/01, 7:30,28.5,71.2,28.1,27.8
 2003/09/01, 7:45,28.6,72.2,28.1,27.8
 2003/09/01, 8:00,28.7,71.7,28.2,27.8
 2003/09/01, 8:15,29,70,28.4,27
 2003/09/01, 8:30,29.2,69.4,28.6,27
 2003/09/01, 8:45,29.5,68.6,28.7,27
 2003/09/01, 9:00,29.5,68.6,29,27.1
 2003/09/01, 9:15,29.6,68.1,29.5,27.1
 2003/09/01, 9:30,29.8,67.9,29.9,27.1
 2003/09/01, 9:45,30.2,67.4,30.1,27.1
 2003/09/01,10:00,30.5,66.1,30.3,27.2
 2003/09/01,10:15,30.6,65.4,30.5,27.2
 2003/09/01,10:30,31,64.8,30.6,27.3
 2003/09/01,10:45,31.6,64.5,31.2,27.3
 2003/09/01,11:00,31.6,64.7,31.5,27.3
 2003/09/01,11:15,31.6,64.7,31.6,27.4
 2003/09/01,11:30,31.7,64.5,31.6,27.4
 2003/09/01,11:45,31.8,64.7,31.6,27.5
 2003/09/01,12:00,32.1,64.3,31.3,27.5
 2003/09/01,12:15,30.1,52.5,31,27.6
 2003/09/01,12:30,28.6,46.2,31.1,27.6
 2003/09/01,12:45,28.7,44.8,31.2,27.7
 2003/09/01,13:00,27.7,46.4,31.3,27.8
 2003/09/01,13:15,27.5,49.4,31.3,27.8
 2003/09/01,13:30,27.1,47,31.4,27.9
 2003/09/01,13:45,27.1,46.5,31.5,28
 2003/09/01,14:00,26.9,45.8,31.7,28
 2003/09/01,14:15,26.7,45.3,31.7,28.1
 2003/09/01,14:30,26.5,44.8,31.7,28.2
 2003/09/01,14:45,26.3,45.1,31.7,28.2
 2003/09/01,15:00,27.4,49.9,31.7,28.3
 2003/09/01,15:15,28.4,54.3,31.8,28.4
 2003/09/01,15:30,28.9,56.4,31.8,28.5
 2003/09/01,15:45,29.3,59.9,31.8,28.5
 2003/09/01,16:00,28.1,50.8,31.7,28.6
 2003/09/01,16:15,27.9,45.8,31.5,28.7
 2003/09/01,16:30,28.8,54.3,31.5,28.7
 2003/09/01,16:45,29.1,57,31.5,28.8
 2003/09/01,17:00,29.6,59.4,31.5,28.9
 2003/09/01,17:15,28.2,56.9,31.4,28.9
 2003/09/01,17:30,28.6,57.9,31.3,29
 2003/09/01,17:45,28,50.3,31.3,29.1
 2003/09/01,18:00,27.7,45.6,31.2,29.1
 2003/09/01,18:15,26.6,47.5,31.1,29.2
 2003/09/01,18:30,26.6,51.5,31,29.2
 2003/09/01,18:45,26.5,57.9,30.9,29.3
 2003/09/01,19:00,26.2,55.8,30.7,29.3
 2003/09/01,19:15,26.1,54,30.7,29.4
 2003/09/01,19:30,25.6,50.8,30.6,29.4
 2003/09/01,19:45,26,52.2,30.6,29.5
 2003/09/01,20:00,25.7,52.8,30.4,29.5
 2003/09/01,20:15,25.6,53.2,30.3,29.5
 2003/09/01,20:30,25.8,56.7,30,28.3
 2003/09/01,20:45,25.8,57.2,29.9,28.4
 2003/09/01,21:00,25.6,55.4,29.7,28.5
 2003/09/01,21:15,25.5,55.3,29.8,28.5
 2003/09/01,21:30,25.4,57,29.7,28.6
 2003/09/01,21:45,25.6,58.4,29.6,28.6
 2003/09/01,22:00,26.1,64.1,29.6,28.7
 2003/09/01,22:15,26.9,63.7,29.5,27.2
 2003/09/01,22:30,27.3,67,29.5,27.2
 2003/09/01,22:45,27.6,66.2,29.4,27.3
 2003/09/01,23:00,27.8,68.6,29.3,27.4
 2003/09/01,23:15,28,68,29.3,27.4
 2003/09/01,23:30,27.2,59.7,29.3,27.5
 2003/09/01,23:45,27.1,55.7,29.2,27.5
 2003/09/02, 0:00,26.9,57,29.2,27.6
 2003/09/02, 0:15,26.1,57.2,29.2,27.6
 2003/09/02, 0:30,26.2,58.1,29.1,27.6
 2003/09/02, 0:45,27.2,68.6,29,27.7
 2003/09/02, 1:00,27.5,67.8,28.9,27.7
 2003/09/02, 1:15,27.7,70.1,28.8,27.8
 2003/09/02, 1:30,27.8,69,28.7,27.8
 2003/09/02, 1:45,27.9,70.8,28.7,27.8
 2003/09/02, 2:00,28,70.2,28.7,27.9
 2003/09/02, 2:15,28,71.6,28.7,27.9
 2003/09/02, 2:30,28,71.4,28.6,27.9
 2003/09/02, 2:45,28,72.4,28.6,27.9
 2003/09/02, 3:00,28,72.3,28.5,28
 2003/09/02, 3:15,28,73,28.5,28
 2003/09/02, 3:30,28,72.7,28.4,28
 2003/09/02, 3:45,28,73,28.4,28
 2003/09/02, 4:00,28,72.5,28.4,28
 2003/09/02, 4:15,28,73.1,28.4,28
 2003/09/02, 4:30,28,72.6,28.3,28
 2003/09/02, 4:45,28,73,28.3,28
 2003/09/02, 5:00,28,72.5,28.2,28.1
 2003/09/02, 5:15,28,73.1,28.2,28
 2003/09/02, 5:30,28,72.9,28.2,28.1
 2003/09/02, 5:45,28.1,72.5,28.1,28.1
 2003/09/02, 6:00,28.3,71.7,28.1,28.1
 2003/09/02, 6:15,27.8,74.6,28,28.1
 2003/09/02, 6:30,27.7,74.6,28,28.1
 2003/09/02, 6:45,27.7,74.6,27.9,28.1
 2003/09/02, 7:00,27.8,74.7,28,28.1
 2003/09/02, 7:15,27.9,74.9,28,28.1
 2003/09/02, 7:30,28,74.3,28,28.1
 2003/09/02, 7:45,28.2,74.2,28.1,28.1
 2003/09/02, 8:00,28.3,73.6,28.1,28.1
 2003/09/02, 8:15,28.6,74,28.3,28.1
 2003/09/02, 8:30,28.9,72.9,28.4,28.1
 2003/09/02, 8:45,29.1,71.7,28.6,28.1
 2003/09/02, 9:00,29.2,70.2,28.9,28.1
 2003/09/02, 9:15,29.4,69.7,29.3,28.1
 2003/09/02, 9:30,29.6,68.7,29.6,28.1
 2003/09/02, 9:45,29.9,68.2,30.1,28.1
 2003/09/02,10:00,30.2,67.3,30.3,28.1
 2003/09/02,10:15,30.4,66.9,30.4,28.1
 2003/09/02,10:30,30.7,66.1,30.7,28.1
 2003/09/02,10:45,30.9,66,30.9,28.1
 2003/09/02,11:00,31.2,65.2,31.1,28.2
 2003/09/02,11:15,31.4,64.7,31.3,28.2
 2003/09/02,11:30,31.6,64.4,31.5,28.2
 2003/09/02,11:45,31.7,64.5,31.5,28.2
 2003/09/02,12:00,31.9,64.1,31.6,28.2
 2003/09/02,12:15,29.6,51.6,31,28.2
 2003/09/02,12:30,28.9,45.5,30.8,28.2
 2003/09/02,12:45,29.4,50.5,31,28.3
 2003/09/02,13:00,27.8,49,31,28.3
 2003/09/02,13:15,27.3,47.4,30.8,28.3
 2003/09/02,13:30,26.9,47.9,31,28.4
 2003/09/02,13:45,26.5,47.7,30.9,28.4
 2003/09/02,14:00,26.4,47.4,30.8,28.4
 2003/09/02,14:15,26.4,49.4,31,28.4
 2003/09/02,14:30,26.6,50,31.4,28.5
 2003/09/02,14:45,27.4,52.9,31.8,28.5
 2003/09/02,15:00,28.8,59.5,31.8,28.6
 2003/09/02,15:15,29.3,61.5,32.1,28.6
 2003/09/02,15:30,29.1,60.8,32.2,28.6
 2003/09/02,15:45,28.2,48.9,32.3,28.7
 2003/09/02,16:00,28.2,46.7,32.3,28.8
 2003/09/02,16:15,27.6,52.6,32.2,28.8
 2003/09/02,16:30,29.3,61.9,32,28.9
 2003/09/02,16:45,29.6,64.4,32,29
 2003/09/02,17:00,29.9,64.1,32.1,29
 2003/09/02,17:15,29.2,66.2,32,29.1
 2003/09/02,17:30,28.5,54.3,32,29.1
 2003/09/02,17:45,28.4,50.8,31.8,29.2
 2003/09/02,18:00,27,48.8,31.6,29.3
 2003/09/02,18:15,26.5,47.7,31.4,29.3
 2003/09/02,18:30,26.5,50.1,31.2,29.4
 2003/09/02,18:45,26.6,53.3,31,29.4
 2003/09/02,19:00,26.2,53.4,30.9,29.4
 2003/09/02,19:15,26.4,55.3,30.8,29.5
 2003/09/02,19:30,26.7,56.2,30.7,29.5
 2003/09/02,19:45,26.8,60.2,30.7,29.6
 2003/09/02,20:00,26.3,56.5,30.7,29.6
 2003/09/02,20:15,26.1,52.9,30.7,29.7
 2003/09/02,20:30,26.5,51.9,30.5,29.7
 2003/09/02,20:45,25.9,52.6,30.3,29.7
 2003/09/02,21:00,26.3,54.8,30,29.8
 2003/09/02,21:15,26.3,53.1,29.9,29.8
 2003/09/02,21:30,26.1,52.7,29.6,29.8
 2003/09/02,21:45,26.2,55.4,29.6,29.8
 2003/09/02,22:00,26.6,59.1,29.6,29.8
 2003/09/02,22:15,26.2,58.2,29.6,29.8
 2003/09/02,22:30,26.5,59.5,29.6,29.8
 2003/09/02,22:45,26.9,68.3,29.5,29.8
 2003/09/02,23:00,27.7,73.7,29.5,29.8
 2003/09/02,23:15,28,72.9,29.5,28.3
 2003/09/02,23:30,26.9,58.8,29.4,28.3
 2003/09/02,23:45,26.5,55.7,29.3,28.4
 2003/09/03, 0:00,26.5,55.8,29.3,28.4
 2003/09/03, 0:15,26.3,55.7,29.2,28.4
 2003/09/03, 0:30,26.2,55.9,29.1,28.4
 2003/09/03, 0:45,26.2,56.5,29.1,28.5
 2003/09/03, 1:00,26.5,69.6,28.9,28.5
 2003/09/03, 1:15,27.2,72.3,28.7,28.5
 2003/09/03, 1:30,27.5,72.8,28.7,28.6
 2003/09/03, 1:45,27.7,73,28.8,28.6
 2003/09/03, 2:00,27.9,73.2,28.9,28.6
 2003/09/03, 2:15,28,73.6,28.9,27.6
 2003/09/03, 2:30,28.1,73.8,28.8,27.6
 2003/09/03, 2:45,28.1,74.4,28.8,27.6
 2003/09/03, 3:00,28.2,73.8,28.7,27.7
 2003/09/03, 3:15,28.2,73.9,28.7,27.7
 2003/09/03, 3:30,28.3,73.8,28.7,27.8
 2003/09/03, 3:45,28.2,73.6,28.7,27.8
 2003/09/03, 4:00,28.3,73.9,28.7,27.8
 2003/09/03, 4:15,28.3,73.7,28.7,27.8
 2003/09/03, 4:30,28.3,74.3,28.6,27.8
 2003/09/03, 4:45,28.3,74.1,28.6,27.8
 2003/09/03, 5:00,28.3,74.2,28.6,27.8
 2003/09/03, 5:15,28.3,74.3,28.5,27.8
 2003/09/03, 5:30,28.3,74.4,28.5,27.8
 2003/09/03, 5:45,28.3,74.3,28.4,27.9
 2003/09/03, 6:00,28.3,74.5,28.5,27.9
 2003/09/03, 6:15,28.2,76.3,28.4,27.4
 2003/09/03, 6:30,27.8,79.4,28.2,27.4
 2003/09/03, 6:45,27.9,79.3,28.2,27.5
 2003/09/03, 7:00,28,78.9,28.3,27.5
 2003/09/03, 7:15,28.3,78.4,28.4,27.5
 2003/09/03, 7:30,28.5,77.8,28.4,26.9
 2003/09/03, 7:45,28.7,77.5,28.5,27
 2003/09/03, 8:00,28.9,76.9,28.6,27
 2003/09/03, 8:15,29.1,75.8,28.7,27
 2003/09/03, 8:30,29.3,73.9,28.8,27
 2003/09/03, 8:45,29.6,73.7,29,27.1
 2003/09/03, 9:00,29.8,73,29.1,27.1
 2003/09/03, 9:15,30,72,29.6,27.1
 2003/09/03, 9:30,30.1,71.4,29.8,27.1
 2003/09/03, 9:45,30.5,70.5,29.8,27.2
 2003/09/03,10:00,31,69.6,30.1,27.2
 2003/09/03,10:15,31.3,68.5,30.2,27.3
 2003/09/03,10:30,31.4,67.6,30.5,27.3
 2003/09/03,10:45,31.6,66.8,30.7,27.3
 2003/09/03,11:00,31.9,66.9,31.2,27.4
 2003/09/03,11:15,32,66.6,31.5,27.4
 2003/09/03,11:30,32.6,63.2,31.8,27.5
 2003/09/03,11:45,32.8,62.2,32,27.5
 2003/09/03,12:00,32.8,61,31.9,27.6
 2003/09/03,12:15,33,61.7,31.7,27.6
 2003/09/03,12:30,32.9,61.3,31.7,27.7
 2003/09/03,12:45,32.8,62.5,31.8,27.8
 2003/09/03,13:00,33,62.5,32,27.8
 2003/09/03,13:15,33.3,60.1,32.4,27.9
 2003/09/03,13:30,33.5,59.2,32.6,28
 2003/09/03,13:45,33.9,58.7,33.1,28.1
 2003/09/03,14:00,33.7,60,32.6,28.1
 2003/09/03,14:15,33.8,58.8,32.6,28.2
 2003/09/03,14:30,30.5,47.5,32.4,28.3
 2003/09/03,14:45,29.6,42.5,32.5,28.4
 2003/09/03,15:00,28.4,42.8,32.5,28.4
 2003/09/03,15:15,28.1,43.2,32.6,28.5
 2003/09/03,15:30,27.9,43.6,32.6,28.6
 2003/09/03,15:45,27.5,45.2,32.5,28.7
 2003/09/03,16:00,27.2,45.2,32.3,28.7
 2003/09/03,16:15,28.7,54,32.3,28.8
 2003/09/03,16:30,29.3,57.3,32.3,28.9
 2003/09/03,16:45,29.6,61.7,32.2,29
 2003/09/03,17:00,28.5,52,32.2,29
 2003/09/03,17:15,28.2,48.2,32,29.1
 2003/09/03,17:30,27.2,46.9,31.8,29.2
 2003/09/03,17:45,26.4,48,31.7,29.2
 2003/09/03,18:00,26.1,49.7,31.5,28.4
 2003/09/03,18:15,26.1,52.5,31.5,28.4
 2003/09/03,18:30,26,52.8,31.3,28.5
 2003/09/03,18:45,25.8,51.8,31.3,28.6
 2003/09/03,19:00,26,54.5,31.3,28.6
 2003/09/03,19:15,26.1,54.1,31.2,28.7
 2003/09/03,19:30,25.4,52.2,31.2,28.7
 2003/09/03,19:45,25.7,53.8,31,28.8
 2003/09/03,20:00,26,57.7,30.9,28.8
 2003/09/03,20:15,25.8,60.1,31,28.9
 2003/09/03,20:30,25.6,61.5,30.7,28.9
 2003/09/03,20:45,25.8,64.6,30.7,28.9
 2003/09/03,21:00,25.4,57.3,30.7,29
 2003/09/03,21:15,26.2,62.3,30.6,29
 2003/09/03,21:30,27,69.9,30.5,29
 2003/09/03,21:45,27,65.8,30.5,29
 2003/09/03,22:00,26.8,62,30.4,29.1
 2003/09/03,22:15,26.8,61.9,30.3,29.1
 2003/09/03,22:30,26.8,59.7,30.3,29.1
 2003/09/03,22:45,26.8,58.4,30.2,29.1
 2003/09/03,23:00,26.7,57,30.1,29.1
 2003/09/03,23:15,26.6,55.9,30.1,29.1
 2003/09/03,23:30,26.5,55,30,29.2
 2003/09/03,23:45,26.4,54.8,29.9,29.2
 2003/09/04, 0:00,26.5,55.5,29.9,29.2
 2003/09/04, 0:15,26.6,56.5,29.8,29.2
 2003/09/04, 0:30,26.6,56.7,29.7,29.2
 2003/09/04, 0:45,26.7,56.7,29.6,29.1
 2003/09/04, 1:00,26.6,56.8,29.5,29.1
 2003/09/04, 1:15,26.8,57.9,29.5,29.1
 2003/09/04, 1:30,27,58.6,29.4,29.1
 2003/09/04, 1:45,27.1,59,29.3,29.1
 2003/09/04, 2:00,27.1,59.3,29.3,29.1
 2003/09/04, 2:15,27.1,59.4,29.2,29.1
 2003/09/04, 2:30,27.2,59.4,29.1,29
 2003/09/04, 2:45,27.2,59.5,29.1,29
 2003/09/04, 3:00,27.1,59.3,29,29
 2003/09/04, 3:15,27.1,59.2,28.8,29
 2003/09/04, 3:30,27.1,59.1,28.9,28.9
 2003/09/04, 3:45,27.1,59.2,28.8,28.9
 2003/09/04, 4:00,27.1,59.3,28.7,28.9
 2003/09/04, 4:15,27.2,59.3,28.7,28.9
 2003/09/04, 4:30,27.1,59.4,28.6,28.9
 2003/09/04, 4:45,27.1,59.4,28.6,28.8
 2003/09/04, 5:00,27,59.7,28.6,28.8
 2003/09/04, 5:15,27,59.2,28.4,28.8
 2003/09/04, 5:30,27,59.3,28.4,28.7
 2003/09/04, 5:45,27,63.4,28.4,28.7
 2003/09/04, 6:00,27.2,64.9,28.3,28.7
 2003/09/04, 6:15,27.4,68.3,28.2,28.6
 2003/09/04, 6:30,27.5,68.5,28.2,28.6
 2003/09/04, 6:45,27.5,69.1,28.2,28.6
 2003/09/04, 7:00,27.6,68.9,28.2,28.5
 2003/09/04, 7:15,27.7,69.1,28.1,28.5
 2003/09/04, 7:30,27.8,71.7,28.2,28.5
 2003/09/04, 7:45,28,73.6,28.1,28.5
 2003/09/04, 8:00,28.1,73.3,28.1,28.5
 2003/09/04, 8:15,28.4,73.1,28.2,28.5
 2003/09/04, 8:30,28.6,73,28.3,28.4
 2003/09/04, 8:45,28.7,71.2,28.3,28.4
 2003/09/04, 9:00,28.9,70.2,28.4,28.4
 2003/09/04, 9:15,29,69.7,28.6,28.4
 2003/09/04, 9:30,29.3,67.1,28.8,28.4
 2003/09/04, 9:45,29.7,65.5,29.3,28.4
 2003/09/04,10:00,30.1,64.5,29.4,28.4
 2003/09/04,10:15,30.2,63.7,30.1,28.4
 2003/09/04,10:30,30.8,61.2,30,28.4
 2003/09/04,10:45,31.4,57.6,30,28.4
 2003/09/04,11:00,31.6,56.7,30.4,28.4
 2003/09/04,11:15,31.7,56.3,30.5,28.4
 2003/09/04,11:30,32,56,30.5,28.4
 2003/09/04,11:45,32.1,55.4,30.6,28.4
 2003/09/04,12:00,32,55.2,30.7,28.4
 2003/09/04,12:15,32.3,54.8,30.9,28.4
 2003/09/04,12:30,32.3,55,31.4,28.4
 2003/09/04,12:45,32.4,55.5,31.7,28.4
 2003/09/04,13:00,32.5,55.8,31.8,28.4
 2003/09/04,13:15,32.6,56.1,32,28.5
 2003/09/04,13:30,32.6,56.6,32.1,28.5
 2003/09/04,13:45,32.7,56.7,32.2,28.5
 2003/09/04,14:00,32.8,56.6,32.2,28.5
 2003/09/04,14:15,32.8,56.8,32.3,28.5
 2003/09/04,14:30,30,49.5,31.8,28.6
 2003/09/04,14:45,28.5,44.5,31.6,28.6
 2003/09/04,15:00,30,50.5,31.5,28.6
 2003/09/04,15:15,30.6,54,31.5,28.7
 2003/09/04,15:30,30.9,57.8,31.5,28.7
 2003/09/04,15:45,31.2,59.7,31.5,28.7
 2003/09/04,16:00,31.4,62.3,31.4,28.8
 2003/09/04,16:15,31.5,62.9,31.4,28.8
 2003/09/04,16:30,31.6,64.5,31.4,28.8
 2003/09/04,16:45,31.8,64.3,31.4,28.9
 2003/09/04,17:00,31.8,65.3,31.4,28.9
 2003/09/04,17:15,31.5,61.8,31.4,28.9
 2003/09/04,17:30,28.6,49.5,31.2,29
 2003/09/04,17:45,28,46,31.1,29
 2003/09/04,18:00,27.3,44.6,30.9,29.1
 2003/09/04,18:15,26.9,48.6,30.8,29.1
 2003/09/04,18:30,26.4,50.5,30.6,29.1
 2003/09/04,18:45,25.9,49.1,30.5,29.2
 2003/09/04,19:00,26.1,52.3,30.2,29.2
 2003/09/04,19:15,25.8,53.7,30.1,29.2
 2003/09/04,19:30,26,59.6,29.9,29.3
 2003/09/04,19:45,25.9,55.1,29.7,29.3
 2003/09/04,20:00,26.3,55.1,29.6,29.3
 2003/09/04,20:15,26.3,56.8,29.5,29.3
 2003/09/04,20:30,26,58.4,29.1,29.4
 2003/09/04,20:45,25.8,57.7,28.8,29.4
 2003/09/04,21:00,26.2,59.1,28.8,29.4
 2003/09/04,21:15,26.3,59.9,28.5,29.4
 2003/09/04,21:30,26.2,59,28.3,29.4
 2003/09/04,21:45,26.3,60.6,28,29.4
 2003/09/04,22:00,26.5,64.1,28,29.4
 2003/09/04,22:15,26.7,66.2,28.6,29.3
 2003/09/04,22:30,27.4,68.1,28.4,29.3
 2003/09/04,22:45,27.6,67.5,28.4,29.3
 2003/09/04,23:00,27.7,68,28.4,29.3
 2003/09/04,23:15,27.8,67.7,28.4,29.3
 2003/09/04,23:30,27.8,68.2,28.3,29.3
 2003/09/04,23:45,27.9,67.3,28.3,29.2
 2003/09/05, 0:00,27.9,66.8,28.3,29.2
 2003/09/05, 0:15,28,65.9,28.2,29.2
 2003/09/05, 0:30,26.9,62.9,28,29.1
 2003/09/05, 0:45,26.7,66.8,28,29.1
 2003/09/05, 1:00,26.8,59.5,27.9,29.1
 2003/09/05, 1:15,27.3,57.3,27.8,29
 2003/09/05, 1:30,27.4,62.6,27.8,29
 2003/09/05, 1:45,27.6,66.3,27.8,28.9
 2003/09/05, 2:00,27.6,66.5,27.7,28.9
 2003/09/05, 2:15,27.5,66.9,27.7,28.8
 2003/09/05, 2:30,27.5,66.7,27.5,27.5
 2003/09/05, 2:45,27.4,66.9,27.4,27.4
 2003/09/05, 3:00,27.4,66.4,27.4,27.4
 2003/09/05, 3:15,27.4,66.4,27.4,27.4
 2003/09/05, 3:30,27.4,66.2,27.3,27.4
 2003/09/05, 3:45,27.3,66.2,27.3,27.4
 2003/09/05, 4:00,27.3,66,27.2,27.4
 2003/09/05, 4:15,27.3,65.9,27.2,27.3
 2003/09/05, 4:30,27.3,65.8,27.1,27.3
 2003/09/05, 4:45,27.2,65.9,27.1,27.3
 2003/09/05, 5:00,27.2,65.9,27,27.3
 2003/09/05, 5:15,27.2,65.9,26.9,27.3
 2003/09/05, 5:30,27.1,65.9,26.9,27.3
 2003/09/05, 5:45,27.1,66.1,26.9,27.3
 2003/09/05, 6:00,27.2,65.9,26.9,27.2
 2003/09/05, 6:15,27.2,66.1,26.9,27.2
 2003/09/05, 6:30,27.2,66,26.9,27.2
 2003/09/05, 6:45,27.1,66.3,26.9,27.2
 2003/09/05, 7:00,27,67.3,26.8,27.2
 2003/09/05, 7:15,26.9,68.7,26.8,27.2
 2003/09/05, 7:30,26.9,69.6,26.7,27.1
 2003/09/05, 7:45,26.9,69.5,26.7,27.1
 2003/09/05, 8:00,27,68.8,26.8,27.1
 2003/09/05, 8:15,27.2,68.4,26.8,27.1
 2003/09/05, 8:30,27.3,67.3,26.9,27.1
 2003/09/05, 8:45,27.2,66.7,26.9,27.1
 2003/09/05, 9:00,27.4,65.7,27,27.1
 2003/09/05, 9:15,27.4,64.9,26.9,27.1
 2003/09/05, 9:30,27.5,63.7,27,27.1
 2003/09/05, 9:45,27.7,60.7,27.1,27.1
 2003/09/05,10:00,28.2,59.4,27.2,27.1
 2003/09/05,10:15,28.6,57.3,27.5,27.1
 2003/09/05,10:30,28.8,56.6,27.6,27.1
 2003/09/05,10:45,29.1,56.3,27.7,27.1
 2003/09/05,11:00,29.3,56.4,28.1,27.1
 2003/09/05,11:15,29.3,56.5,28.6,27.1
 2003/09/05,11:30,29.5,55.5,29,27.1
 2003/09/05,11:45,29.7,55.7,29.1,27.1
 2003/09/05,12:00,29.8,55.1,29.3,27.1
 2003/09/05,12:15,29.9,55.2,29.5,27.1
 2003/09/05,12:30,30.1,55.1,29.6,27.1
 2003/09/05,12:45,30.1,54.8,29.7,27.1
 2003/09/05,13:00,30.3,54.5,29.7,27.1
 2003/09/05,13:15,30.4,55,29.9,27.1
 2003/09/05,13:30,30.5,55.6,30.1,27.2
 2003/09/05,13:45,30.6,55.9,30.2,27.2
 2003/09/05,14:00,30.7,56.2,30.2,27.2
 2003/09/05,14:15,28.9,51.4,29.8,27.3
 2003/09/05,14:30,28.5,43.7,29.7,27.3
 2003/09/05,14:45,27.9,42.4,29.6,27.3
 2003/09/05,15:00,27.1,48.7,29.7,27.4
 2003/09/05,15:15,26.8,51.4,30.1,27.4
 2003/09/05,15:30,27.9,55.7,30,27.5
 2003/09/05,15:45,28.4,58.5,29.9,27.5
 2003/09/05,16:00,28.7,61.1,29.9,27.6
 2003/09/05,16:15,29,63.4,29.9,27.6
 2003/09/05,16:30,29.3,65.2,29.9,27.7
 2003/09/05,16:45,29.4,65.2,30,27.7
 2003/09/05,17:00,29.2,64.1,30,27.8
 2003/09/05,17:15,27.3,50.6,30,27.8
 2003/09/05,17:30,26.8,48.4,29.9,27.9
 2003/09/05,17:45,26.7,52.9,29.9,27.9
 2003/09/05,18:00,26.5,55.3,29.9,28
 2003/09/05,18:15,26.3,56.6,29.8,28
 2003/09/05,18:30,26.4,57.2,29.7,28.1
 2003/09/05,18:45,26.3,58.4,29.6,28.1
 2003/09/05,19:00,26.6,59.8,29.5,28.1
 2003/09/05,19:15,26,57.2,29.5,28.2
 2003/09/05,19:30,26.1,57.9,29.4,28.2
 2003/09/05,19:45,26.1,59.9,29.3,28.3
 2003/09/05,20:00,26,58.7,29.2,28.3
 2003/09/05,20:15,26.2,60,29,28.3
 2003/09/05,20:30,27.1,63.8,28.9,28.4
 2003/09/05,20:45,27.5,65.2,29,28.4
 2003/09/05,21:00,26.6,61.9,28.9,28.4
 2003/09/05,21:15,25.9,58.6,28.8,28.4
 2003/09/05,21:30,25.8,59,28.7,28.4
 2003/09/05,21:45,25.6,59.4,28.7,28.4
 2003/09/05,22:00,25.5,59.4,28.7,28.4
 2003/09/05,22:15,25.9,66.5,28.6,28.4
 2003/09/05,22:30,26.3,70.4,28.5,28.5
 2003/09/05,22:45,26.8,71,28.4,28.5
 2003/09/05,23:00,27.2,69.6,28.3,28.5
 2003/09/05,23:15,27.3,68,28.2,28.5
 2003/09/05,23:30,26.9,65.6,28.1,28.5
 2003/09/05,23:45,26,63.4,28.1,28.5
 2003/09/06, 0:00,26.2,68.9,28,28.5
 2003/09/06, 0:15,27,62.2,27.9,28.5
 2003/09/06, 0:30,27.2,62.4,27.8,28.5
 2003/09/06, 0:45,27.3,63.9,27.8,28.4
 2003/09/06, 1:00,27.4,64.1,27.9,28.4
 2003/09/06, 1:15,27.4,64.9,27.8,28.4
 2003/09/06, 1:30,27.4,65.1,27.8,28.4
 2003/09/06, 1:45,27.4,65.6,27.7,26.6
 2003/09/06, 2:00,27.4,64.7,27.6,26.6
 2003/09/06, 2:15,27.4,64,27.6,26.7
 2003/09/06, 2:30,27.5,63,27.5,26.7
 2003/09/06, 2:45,27.5,62.7,27.4,26.7
 2003/09/06, 3:00,27.5,62.3,27.4,26.7
 2003/09/06, 3:15,27.5,62,27.3,26.8
 2003/09/06, 3:30,27.5,61.9,27.3,26.8
 2003/09/06, 3:45,27.5,61.9,27.3,26.8
 2003/09/06, 4:00,27.5,62,27.3,26.8
 2003/09/06, 4:15,27.5,62.2,27.2,26.8
 2003/09/06, 4:30,27.5,62,27.2,26.8
 2003/09/06, 4:45,27.4,62.1,27.2,26.8
 2003/09/06, 5:00,27.4,61.9,27.2,26.8
 2003/09/06, 5:15,27.4,62.1,27.1,26.8
 2003/09/06, 5:30,27.4,62.1,27.1,26.8
 2003/09/06, 5:45,27.4,62.7,27.1,26.8
 2003/09/06, 6:00,27.3,63,27,26.8
 2003/09/06, 6:15,27.3,63.2,27,26.8
 2003/09/06, 6:30,27.3,63.1,27,26.8
 2003/09/06, 6:45,27.3,63.3,27,26.8
 2003/09/06, 7:00,27.3,63.2,26.9,26.1
 2003/09/06, 7:15,27.3,63.2,27,26
 2003/09/06, 7:30,27.4,63.2,27,26
 2003/09/06, 7:45,27.4,63.8,27,26.1
 2003/09/06, 8:00,27.6,64.9,27.1,26.1
 2003/09/06, 8:15,27.9,65.7,27.2,26.1
 2003/09/06, 8:30,28,64.9,27.3,26.1
 2003/09/06, 8:45,28.3,66.1,27.5,26.1
 2003/09/06, 9:00,28.6,66.5,27.8,26.1
 2003/09/06, 9:15,29.1,66.5,28,26.1
 2003/09/06, 9:30,29,65.9,28.3,26.2
 2003/09/06, 9:45,29.1,65.9,28.6,26.2
 2003/09/06,10:00,29.3,65.8,28.9,26.2
 2003/09/06,10:15,29.5,65.4,29.2,26.2
 2003/09/06,10:30,29.6,65.7,29.6,26.2
 2003/09/06,10:45,29.8,64.8,29.9,26.3
 2003/09/06,11:00,29.9,65,29.9,26.3
 2003/09/06,11:15,30.2,63.8,29.8,26.3
 2003/09/06,11:30,30.2,63.7,29.7,26.4
 2003/09/06,11:45,30.6,63.9,29.9,26.4
 2003/09/06,12:00,30.9,63.1,29.9,26.4
 2003/09/06,12:15,30.9,63.6,29.9,26.5
 2003/09/06,12:30,31.1,64.2,30.1,26.5
 2003/09/06,12:45,31.1,64,30.1,26.5
 2003/09/06,13:00,31.4,63.5,30.5,26.6
 2003/09/06,13:15,28.6,55.6,30.3,26.6
 2003/09/06,13:30,27.7,48.9,30.2,26.6
 2003/09/06,13:45,27.4,51.5,30.3,27.4
 2003/09/06,14:00,28.4,61.6,30.1,27.4
 2003/09/06,14:15,29.2,63.9,30.4,27.4
 2003/09/06,14:30,29.5,65.9,30.2,27.5
 2003/09/06,14:45,29.6,67.6,29.9,27.5
 2003/09/06,15:00,29.7,68.8,29.8,27.5
 2003/09/06,15:15,29.6,70.1,29.8,27.5
 2003/09/06,15:30,29.6,71,29.7,27.5
 2003/09/06,15:45,29.6,71.4,29.8,27.6
 2003/09/06,16:00,29.7,71.7,29.7,27.6
 2003/09/06,16:15,28.5,60.2,29.6,27.6
 2003/09/06,16:30,27.5,49.8,29.5,27.7
 2003/09/06,16:45,27,47,29.4,27.7
 2003/09/06,17:00,26.1,52.5,29.4,27.7
 2003/09/06,17:15,26.3,58.6,29.3,27.8
 2003/09/06,17:30,26,59.4,29.3,27.8
 2003/09/06,17:45,25.8,59.1,29.2,27.8
 2003/09/06,18:00,25.8,60,29.1,27.8
 2003/09/06,18:15,26.3,70.5,29.2,27.9
 2003/09/06,18:30,27.1,71.6,29.2,27.9
 2003/09/06,18:45,27.2,70.8,29.1,27.9
 2003/09/06,19:00,27.2,66.5,29,27.9
 2003/09/06,19:15,27.2,64.3,29,28
 2003/09/06,19:30,27.2,61.5,28.9,28
 2003/09/06,19:45,27.1,59.4,28.9,28
 2003/09/06,20:00,27.1,58.7,28.8,28
 2003/09/06,20:15,27.2,57.6,28.8,28
 2003/09/06,20:30,27.2,57.9,28.7,27.2
 2003/09/06,20:45,27.2,58.8,28.7,27.2
 2003/09/06,21:00,27.1,59.5,28.7,27.2
 2003/09/06,21:15,27.5,62.6,28.6,27.3
 2003/09/06,21:30,27.9,64.7,28.6,27.3
 2003/09/06,21:45,28.1,67.5,28.6,27.3
 2003/09/06,22:00,28.4,69.1,28.6,27.3
 2003/09/06,22:15,28.5,70.5,28.6,27.4
 2003/09/06,22:30,28.5,70.1,28.6,27.4
 2003/09/06,22:45,28.5,71.2,28.6,26.9
 2003/09/06,23:00,28.5,70.8,28.5,26.9
 2003/09/06,23:15,28.6,71.5,28.5,26.9
 2003/09/06,23:30,28.6,70.8,28.4,27
 2003/09/06,23:45,28.6,71.2,28.4,27
 2003/09/07, 0:00,28.5,70.9,28.4,27
 2003/09/07, 0:15,28.5,71.2,28.4,27
 2003/09/07, 0:30,28.5,70.7,28.3,27.1
 2003/09/07, 0:45,28.5,70.7,28.3,27.1
 2003/09/07, 1:00,28.4,70,28.3,27.1
 2003/09/07, 1:15,28.4,70.2,28.2,27.1
 2003/09/07, 1:30,28.4,69.7,28.1,27.1
 2003/09/07, 1:45,28.3,70,28.1,27.1
 2003/09/07, 2:00,28.3,69.9,28.1,27.1
 2003/09/07, 2:15,28.3,70,28,27.1
 2003/09/07, 2:30,28.2,69.6,28,27.1
 2003/09/07, 2:45,28.2,70.1,28,27.1
 2003/09/07, 3:00,28.2,69.9,27.9,27.1
 2003/09/07, 3:15,28.1,70.1,27.9,27.1
 2003/09/07, 3:30,28.1,69.4,27.9,27.1
 2003/09/07, 3:45,28,69.4,27.8,27.1
 2003/09/07, 4:00,28,69.2,27.8,27.1
 2003/09/07, 4:15,28,69.3,27.7,27.1
 2003/09/07, 4:30,27.9,69.2,27.7,27.1
 2003/09/07, 4:45,27.9,69.5,27.7,27.1
 2003/09/07, 5:00,27.9,69.4,27.6,27.1
 2003/09/07, 5:15,27.8,69.3,27.6,27.1
 2003/09/07, 5:30,27.8,69.1,27.5,27
 2003/09/07, 5:45,27.8,69.1,27.5,27
 2003/09/07, 6:00,27.7,69.3,27.5,27
 2003/09/07, 6:15,27.7,69.8,27.4,27
 2003/09/07, 6:30,27.7,69.7,27.4,27
 2003/09/07, 6:45,27.7,69.8,27.4,27
 2003/09/07, 7:00,27.7,69.3,27.3,27
 2003/09/07, 7:15,27.7,69.6,27.3,27
 2003/09/07, 7:30,27.7,69.1,27.3,26.9
 2003/09/07, 7:45,27.7,69.1,27.4,27
 2003/09/07, 8:00,27.8,68.7,27.4,26.9
 2003/09/07, 8:15,27.8,68.7,27.4,26.2
 2003/09/07, 8:30,27.9,68.1,27.5,26.2
 2003/09/07, 8:45,28,67.9,27.6,26.2
 2003/09/07, 9:00,28.1,66.8,27.7,26
 2003/09/07, 9:15,28.4,64.8,28,26.4
 2003/09/07, 9:30,28.9,63.1,28.4,26.4
 2003/09/07, 9:45,29.4,62.9,28.6,26.4
 2003/09/07,10:00,29.7,62.8,28.8,26.4
 2003/09/07,10:15,30.1,61.7,29,26.4
 2003/09/07,10:30,30.5,60,29,26.4
 2003/09/07,10:45,30.7,59.8,29,26.4
 2003/09/07,11:00,30.5,61.3,29.9,26.4
 2003/09/07,11:15,30.5,61.4,30.2,26.4
 2003/09/07,11:30,30.7,61.8,30.4,26.5
 2003/09/07,11:45,30.8,61.8,30.6,26.5
 2003/09/07,12:00,31.1,61.1,30.7,26.5
 2003/09/07,12:15,31.1,60.8,30.9,26.5